Overview Statistics Trail Chart Weather Telemetry Raw packets
 

This is the latest recevied weather packets stored in our database for station/object IK1QAD-3. If no packets are shown the sender has not sent any weather packets the latest 10 day(s).

<< 103 104 105 106 107 108 109 >>
Time Temp. Humidity Pressure Rain* Wind** Luminosity Snow
1787828008 29.44° C 67% 1017 hPa 0 mm - - -
1787827704 29.44° C 66% 1016.9 hPa 0 mm - - -
1787827423 29.44° C 68% 1016.9 hPa 0 mm - - -
1787827117 29.44° C 67% 1016.9 hPa 0 mm - - -
1787826809 29.44° C 64% 1016.9 hPa 0 mm - - -
1787826506 29.44° C 67% 1017.1 hPa 0 mm - - -
1787826222 29.44° C 66% 1016.9 hPa 0 mm - - -
1787825917 28.89° C 67% 1017 hPa 0 mm - - -
1787825616 28.89° C 66% 1017 hPa 0 mm - - -
1787825310 28.89° C 67% 1017.1 hPa 0 mm - - -
1787825011 28.89° C 65% 1017 hPa 0 mm - - -
1787824719 28.89° C 65% 1016.9 hPa 0 mm - - -
1787824416 28.89° C 64% 1016.9 hPa 0 mm - - -
1787824115 29.44° C 64% 1016.9 hPa 0 mm - - -
1787823805 28.89° C 65% 1016.9 hPa 0 mm - - -
1787823522 29.44° C 64% 1016.8 hPa 0 mm - - -
1787823217 29.44° C 65% 1016.8 hPa 0 mm - - -
1787822913 29.44° C 62% 1016.7 hPa 0 mm - - -
1787822609 29.44° C 63% 1016.7 hPa 0 mm - - -
1787822321 29.44° C 63% 1016.8 hPa 0 mm - - -
1787822017 29.44° C 61% 1016.7 hPa 0 mm - - -
1787821712 29.44° C 62% 1016.7 hPa 0 mm - - -
1787821412 29.44° C 60% 1016.7 hPa 0 mm - - -
1787821110 29.44° C 62% 1016.6 hPa 0 mm - - -
1787820804 29.44° C 63% 1016.5 hPa 0 mm - - -

* Rain latest hour (hover to see other rain measurements)
** Current wind speed in m/s (hover to see current wind gust speed)